User: anonymous
Location: Valdosta
(30.8330°N, 83.2790°W)
Time: 03:51:20
(UTC-04:00)
Language:

Oscar 19 - Orbit

View from above orbital plane
View from above orbital plane
View from above satellite
View from above satellite

Ground track
Ground track

The orbit data is extracted from the following two-line orbital elements,

1 20442U 90005G   14114.15450366  .00000241  00000-0  10476-3 0  9445
2 20442 098.4752 053.3350 0010731 311.7953 048.2314 14.32542954266947
Epoch (UTC): 24 April 2014 03:42:29
Eccentricity: 0.0010731
inclination: 98.4752°
perigee height: 775 km
apogee height: 791 km
right ascension of ascending node: 53.3350°
argument of perigee: 311.7953°
revolutions per day: 14.32542954
mean anomaly at epoch: 48.2314°
orbit number at epoch: 26694

The dashed part of the orbit path shows where the satellite is in the earth's shadow,  

DLR